This demonstration page uses our WeatherBlox Daily Observations layout. Learn more.

Left ArrowRight Arrow

Hourly Observations for February 13, 2015

Temp ( °F °C ) Dew Point ( °F °C ) Humidity (%) Winds ( mph kmh ) Pressure ( in mb ) Visibility ( mi km ) Precip ( " mm )
12:53 am 00:53 Cloudy 19 -7.2 6 -14.4 57 57 N 6 9 30.42 1030 10 16.0934 N/A
1:53 am 01:53 Cloudy 19 -7.2 7 -13.9 59 59 N 6 9 30.41 1030 10 16.0934 N/A
2:53 am 02:53 Cloudy 19 -7.2 9 -12.8 65 65 N N/A 30.42 1030 10 16.0934 N/A
3:00 am 03:00 Cloudy with Light Snow 19 -7.2 10 -12.2 68 68 N N/A 30.45 1031 9 14.48406 N/A
3:20 am 03:20 Cloudy with Light Snow 18 -7.8 10 -12.2 71 71 ENE 5 7 30.45 1031 2.5 4.02335 N/A
3:53 am 03:53 Cloudy with Light Snow 17 -8.3 11 -11.7 77 77 N N/A 30.4 1030 2.5 4.02335 N/A
4:07 am 04:07 Cloudy with Light Snow 17 -8.3 11 -11.7 77 77 N N/A 30.42 1030 1.5 2.41401 N/A
4:17 am 04:17 Cloudy with Light Snow 17 -8.3 12 -11.1 80 80 N N/A 30.42 1030 2 3.21868 N/A
4:26 am 04:26 Cloudy with Light Snow 17 -8.3 12 -11.1 80 80 N N/A 30.42 1030 5 8.0467 N/A
4:53 am 04:53 Cloudy 17 -8.3 12 -11.1 80 80 N N/A 30.4 1029 10 16.0934 N/A
5:00 am 05:00 Cloudy 17 -8.3 11 -11.7 77 77 N N/A 30.42 1030 10 16.0934 N/A
5:10 am 05:10 Cloudy 17 -8.3 12 -11.1 80 80 N N/A 30.42 1030 10 16.0934 N/A
5:23 am 05:23 Cloudy with Light Snow 17 -8.3 11 -11.7 77 77 N N/A 30.42 1030 8 12.87472 N/A
5:53 am 05:53 Cloudy 16 -8.9 12 -11.1 84 84 N N/A 30.4 1029 10 16.0934 N/A
6:53 am 06:53 Cloudy 14 -10 10 -12.2 84 84 N N/A 30.4 1030 10 16.0934 N/A
7:53 am 07:53 Partly Cloudy 12 -11.1 7 -13.9 80 80 NW 5 7 30.42 1030 10 16.0934 N/A
8:53 am 08:53 Sunny 18 -7.8 10 -12.2 71 71 W 5 7 30.43 1030 10 16.0934 N/A
9:53 am 09:53 Sunny 20 -6.7 11 -11.7 68 68 VRB 3 6 30.41 1030 10 16.0934 N/A
10:53 am 10:53 Partly Cloudy 23 -5 11 -11.7 60 60 VRB 6 9 30.39 1029 10 16.0934 N/A
11:01 am 11:01 Mostly Cloudy 23 -5 11 -11.7 60 60 SSW 8 13 30.39 1029 10 16.0934 N/A
11:28 am 11:28 Cloudy 24 -4.4 11 -11.7 57 57 VRB 5 7 30.39 1029 10 16.0934 N/A
11:53 am 11:53 Cloudy 24 -4.4 12 -11.1 60 60 W 7 11 30.37 1029 10 16.0934 N/A
12:53 pm 12:53 Mostly Cloudy 27 -2.8 11 -11.7 51 51 SW 6 9 30.34 1028 10 16.0934 N/A
1:53 pm 13:53 Sunny 28 -2.2 8 -13.3 43 43 VRB 5 7 30.29 1026 10 16.0934 N/A
2:53 pm 14:53 Sunny 30 -1.1 9 -12.8 41 41 SW 10 17 30.24 1024 10 16.0934 N/A
3:53 pm 15:53 Sunny 30 -1.1 9 -12.8 41 41 SSW 10 17 30.21 1023 10 16.0934 N/A
4:53 pm 16:53 Sunny 31 -0.6 9 -12.8 40 40 WSW 9 15 30.19 1023 10 16.0934 N/A
5:53 pm 17:53 Cloudy 30 -1.1 9 -12.8 41 41 SW 7 11 30.17 1022 10 16.0934 N/A
6:53 pm 18:53 Cloudy 30 -1.1 9 -12.8 41 41 SSW 6 9 30.15 1021 10 16.0934 N/A
7:53 pm 19:53 Cloudy 30 -1.1 8 -13.3 39 39 SW 7 11 30.15 1021 10 16.0934 N/A
8:53 pm 20:53 Cloudy 30 -1.1 8 -13.3 39 39 SSW 10 17 30.12 1020 10 16.0934 N/A
9:53 pm 21:53 Cloudy 30 -1.1 9 -12.8 41 41 VRB 7 11 30.11 1020 10 16.0934 N/A
10:53 pm 22:53 Cloudy 31 -0.6 10 -12.2 42 42 WSW 12 19 30.09 1019 10 16.0934 N/A
11:53 pm 23:53 Cloudy 31 -0.6 10 -12.2 42 42 W 10 17 30.07 1018 10 16.0934 N/A

Powered by AerisWeather